BEESAT-1

Last updated on Wed Sep 09 2026 00:03:15 GMT+0000 (Coordinated Universal Time)

1 35933U 09051C 26251.20825045 .00000588 00000+0 12749-3 0 9996 2 35933 98.3875 159.9730 0004903 344.2151 15.8896 14.61831966901311
UTC large
Height (km)
Speed (km/s)
/
Latitude / Longitude
Inclination (degrees)
Orbital Period (minutes)
Azimuth
Elevation
Range (km)
Doppler Factor

Next 0 passes for location: London (51.5072 / 0.1276)

No passes found over London.
BEESAT-1